Location: Ehrke Reservoir
(40.0279°N, 99.6641°W)
Time: 16:55:28
(UTC+00:00)

ISS - Pass Details

Date: 20 January 2020
Orbit: 415 x 422 km, 51.6° (Epoch: 22 February)

Event Time Altitude Azimuth Distance (km) Brightness Sun altitude
Rises 01:47:24 0° 231° (SW) 2,366 1.0 -23.7°
Reaches altitude 10° 01:49:29 10° 231° (SW) 1,504 -0.2 -24.1°
Enters shadow 01:51:31 34° 231° (SW) 719 -2.2 -24.5°
